Regional Weather Roundup
Issued by NWS

Home | Current Version | Previous Version | Text Only | Print | Product List | Glossary Off
Versions: 1 2 3 4 5 6 7 8 9 10 11 12 13 14 15 16 17 18 19 20 21 22 23 24 25 26 27

000
ASUS45 KBOU 220307
RWRCO

WEATHER ROUNDUP FOR COLORADO
NATIONAL WEATHER SERVICE DENVER/BOULDER CO
900 PM MDT FRI APR 21 2017

NOTE: "FAIR" INDICATES FEW OR NO CLOUDS BELOW 12000 FEET WITH NO
SIGNIFICANT WEATHER AND/OR OBSTRUCTIONS TO VISIBILITY.

COZ001>005-013-030-031-220400-
...NORTHWEST COLORADO...

CITY           SKY/WX    TMP DP  RH WIND       PRES   REMARKS
CRAIG          MOCLDY    38  31  76 SE6       30.18R
HAYDEN         MOCLDY    37  28  70 SW13      30.18R
MEEKER         MOCLDY    39  28  64 E3        30.16R
MOUNT WERNER   NOT AVBL
STEAMBOAT SPGS FAIR      34  28  79 NW3       30.17R
WALDEN           N/A     30  27  86 CALM      30.20R
$$

COZ006>008-011-220400-
...WEST CENTRAL VALLEYS...

CITY           SKY/WX    TMP DP  RH WIND       PRES   REMARKS
GRAND JUNCTION MOCLDY    52  22  30 NE12      30.08R
MONTROSE       FAIR      48  17  29 W6        30.12R
EAGLE          MOCLDY    37  30  75 E8        30.20R
RIFLE          FAIR      46  26  45 W3        30.13R
DELTA          CLOUDY    55  17  22 NW7       30.09R
NUCLA          FAIR      46   9  21 NW7       30.13R
$$

COZ017>023-064>068-220400-
...SOUTHWEST COLORADO...

CITY           SKY/WX    TMP DP  RH WIND       PRES   REMARKS
DURANGO        FAIR      49   7  18 NW14G21   30.05R
CORTEZ         FAIR      49  10  20 N9        30.08R
PAGOSA SPRINGS FAIR      48   8  19 SE5       30.07R
TELLURIDE      FAIR      38  13  35 CALM      30.18R
WOLF CREEK PAS FAIR      27  10  50 S13G21    30.23R WCI  16
$$

COZ009-010-012-014-032>034-037-058>063-220400-
...CENTRAL COLORADO...

CITY           SKY/WX    TMP DP  RH WIND       PRES   REMARKS
ASPEN          MOCLDY    35  28  75 VRB3      30.16R
BUENA VISTA    FAIR      38  18  44 NW7       30.15R
COPPER MTN     HAZE      23  18  80 MISG      30.21R VSB 3/4
BERTHOUD PASS  FAIR      14   3  62 NW18G25   30.19S WCI  -3
COTTONWOOD PAS FAIR      34  18  51 W7G21     30.18R WCI  28
GUNNISON       FAIR      39  23  52 N8        30.14R
KREMMLING      CLOUDY    39  32  75 S10       30.19R
LEADVILLE      MOCLDY    26  22  84 NE3       30.17R
MONARCH PASS   FAIR      23  14  68 W12       30.31R WCI  12
SALIDA         FAIR      44  16  32 CALM      30.20R
SUNLIGHT       FAIR      23  19  86 MISG      30.24R
WILKERSON PASS SNOW      23  21  93 NE5       30.22R VSB 1/4 WCI  17
$$

COZ069>075-220400-
...SAN LUIS VALLEY/SANGRE DE CRISTO MOUNTAINS...

CITY           SKY/WX    TMP DP  RH WIND       PRES   REMARKS
ALAMOSA        FAIR      45  12  26 N14       30.08R
LA VETA PASS   SNOW      28  27  93 NE10G23   30.29R VSB 1/2 WCI  19
SAGUACHE       FAIR      41  14  33 N18G30    30.10R
$$

COZ035-036-038>040-220400-
...NORTHERN COLORADO FRONT RANGE...

CITY           SKY/WX    TMP DP  RH WIND       PRES   REMARKS
DENVER INTL AP CLOUDY    38  34  85 NE8       30.20R
DMNS CITY PARK   N/A     39  35  86 MISG      30.20R
AURORA         DRIZZLE   37  37  99 N6        30.20R
FRONT RANGE AP NOT AVBL
ERIE MUNI ARPT CLOUDY    40  37  87 E5        30.21R
BOULDER MUN AP CLOUDY    37  37 100 W3        30.20R
CENTENNIAL     CLOUDY    38  34  85 N8        30.19R
BROOMFIELD     CLOUDY    39  37  93 NE3       30.20R
FORT COLLINS   LGT RAIN  40  37  89 SE9       30.21R
LONGMONT       MIX PCPN  41  38  87 W5        30.23R
$$

COZ041-046-047-076>085-087-088-220400-
...PIKES PEAK/PALMER DIVIDE AND SOUTHERN FOOTHILLS...

CITY           SKY/WX    TMP DP  RH WIND       PRES   REMARKS
COLO. SPRINGS  CLOUDY    41  31  67 N13       30.19R
A. F. ACADEMY  CLOUDY    37  31  77 N13       30.16R
SCHRIEVER AFB  MOCLDY    38  31  73 N12G20    30.18R
ELLICOTT       CLOUDY   N/A N/A N/A N16       30.17R
FALCON         CLOUDY    36  30  78 N9G18     30.19R
FORT CARSON    CLOUDY    42  31  66 N17G25    30.16R
LIMON          CLOUDY    37  37 100 E8        30.19R
MONUMENT HILL  CLOUDY    32  30  93 N10       30.19R WCI  24
TRINIDAD       CLOUDY    43  35  73 NE10      30.16R
$$

COZ042>045-048>051-090-091-220400-
...NORTHEAST COLORADO...

CITY           SKY/WX    TMP DP  RH WIND       PRES   REMARKS
GREELEY ARPT   CLOUDY    39  37  93 E5        30.23R
AKRON          CLOUDY    39  37  92 CALM      30.20R
BURLINGTON     MOCLDY    41  39  93 N8        30.18R
WRAY           NOT AVBL
STERLING       CLOUDY    41  41 100 CALM      30.21R
HOLYOKE        CLOUDY    45  41  87 W5        30.21R
FORT MORGAN    DRIZZLE   39  37  93 NE9       30.22R
$$

COZ086-089-092>099-220400-
...SOUTHEAST COLORADO...

CITY           SKY/WX    TMP DP  RH WIND       PRES   REMARKS
PUEBLO         LGT RAIN  44  41  89 E6        30.16R
LA JUNTA       CLOUDY    44  37  76 E12       30.16R
LAMAR          CLOUDY    43  38  82 N3        30.15R
SPRINGFIELD      N/A     40  37  89 NE10      30.13R
$$




USA.gov is the U.S. government's official web portal to all federal, state and local government web resources and services.